NOAA NWS Hourly Roundups by Site

Regional Weather Roundup for Omaha, NE

To Select Another Site Choose from List

Select Site:  

000
ASUS43 KOAX 191810
RWRNE

WEATHER ROUNDUP FOR NEBRASKA
NATIONAL WEATHER SERVICE OMAHA NE
100 PM CDT SAT SEP 19 2020

NOTES: SATELLITE DATA IS BEING USED TO AUGMENT CLOUD COVER ABOVE
       12000 FEET.
       "FAIR" INDICATES FEW OR NO CLOUDS BELOW 12,000 FEET WITH NO
       SIGNIFICANT WEATHER AND/OR OBSTRUCTIONS TO VISIBILITY.


NEZ001>004-019>022-054>056-191900-
NEBRASKA PANHANDLE

CITY           SKY/WX    TMP DP  RH WIND       PRES   REMARKS
SCOTTSBLUFF    MOSUNNY   74  48  39 SE7       29.96F
6HR MIN TEMP:  50; 6HR MAX TEMP:  75;

ALLIANCE       PTSUNNY   78  45  30 S14       29.96F
6HR MIN TEMP:  51; 6HR MAX TEMP:  78;

CHADRON        MOSUNNY   80  47  31 CALM      29.89F
6HR MIN TEMP:  51; 6HR MAX TEMP:  80;

GORDON         FAIR      81  46  28 S12       29.92F
6HR MIN TEMP:  51; 6HR MAX TEMP:  82;

KIMBALL        MOSUNNY   85  37  18 S7        30.03F
SIDNEY         MOSUNNY   82  40  22 S12       30.00F
6HR MIN TEMP:  44; 6HR MAX TEMP:  82;

$$

NEZ057>060-069>072-079>082-191900-
SOUTHWEST NEBRASKA

CITY           SKY/WX    TMP DP  RH WIND       PRES   REMARKS
NORTH PLATTE   PTSUNNY   75  52  44 SE15      30.02F
6HR MIN TEMP:  55; 6HR MAX TEMP:  76;

IMPERIAL       MOSUNNY   79  49  34 S15       30.02F
6HR MIN TEMP:  53; 6HR MAX TEMP:  79;

LEXINGTON      MOSUNNY   73  54  50 S21G28    30.07F
MCCOOK         MOSUNNY   81  49  32 S18G26    30.04F HAZE
6HR MIN TEMP:  54; 6HR MAX TEMP:  81;

OGALLALA       MOSUNNY   77  48  36 S14       30.00F
$$

NEZ005>010-023>029-035>040-094-191900-
NORTH CENTRAL NEBRASKA

CITY           SKY/WX    TMP DP  RH WIND       PRES   REMARKS
VALENTINE      SUNNY     79  52  38 S20G30    29.93F
6HR MIN TEMP:  57; 6HR MAX TEMP:  79;

AINSWORTH      MOSUNNY   75  54  48 S23G32    29.97F
BROKEN BOW     MOSUNNY   74  54  49 S24G33    30.05F
6HR MIN TEMP:  55; 6HR MAX TEMP:  74;

O`NEILL        MOSUNNY   76  52  42 S21G32    30.02F
ORD            MOSUNNY   74  55  51 S18G31    30.05F
6HR MIN TEMP:  53; 6HR MAX TEMP:  74;

THEDFORD       MOSUNNY   77  52  41 S18G28    30.00F
$$

NEZ041-046>049-061>064-073>077-083>087-191900-
SOUTH CENTRAL NEBRASKA

CITY           SKY/WX    TMP DP  RH WIND       PRES   REMARKS
GRAND ISLAND   MOSUNNY   74  54  49 S22G33    30.12F
6HR MIN TEMP:  56; 6HR MAX TEMP:  74; 6HR PCP: TRACE;

AURORA         MOSUNNY   72  56  58 S18G25    30.14F
HASTINGS       PTSUNNY   72  54  53 S20G31    30.14F
6HR MIN TEMP:  55; 6HR MAX TEMP:  72;

HEBRON         MOSUNNY   73  55  53 S15       30.18F
HOLDREGE       MOSUNNY   73  53  49 S23       30.11F
KEARNEY        PTSUNNY   73  55  53 S26G32    30.10F
YORK           PTSUNNY   70  55  60 S15G23    30.15F
$$

NEZ011>018-030>034-042>045-191900-
NORTHEAST NEBRASKA

CITY           SKY/WX    TMP DP  RH WIND       PRES   REMARKS
NORFOLK        PTSUNNY   72  53  51 S28G37    30.10F
6HR MIN TEMP:  55; 6HR MAX TEMP:  73;

ALBION         PTSUNNY   71  55  58 S21G28    30.10F
BLAIR          SUNNY     70  53  53 SE15G22   30.19F
COLUMBUS       PTSUNNY   72  55  55 S20G25    30.14F
FREMONT        MOSUNNY   71  53  52 S16G25    30.18F
TEKAMAH        MOSUNNY   71  51  49 S16G29    30.18F
6HR MIN TEMP:  51; 6HR MAX TEMP:  71;

WAYNE          MOSUNNY   74  54  49 S23       30.12F
$$

NEZ050>053-065>068-078-088>093-191900-
SOUTHEAST NEBRASKA

CITY           SKY/WX    TMP DP  RH WIND       PRES   REMARKS
LINCOLN        PTSUNNY   73  51  46 S23G31    30.18F
6HR MIN TEMP:  52; 6HR MAX TEMP:  74;

OMAHA EPPLEY   PTSUNNY   71  51  49 SE21G29   30.20F
6HR MIN TEMP:  57; 6HR MAX TEMP:  71;

BEATRICE       MOSUNNY   72  53  51 S17       30.20F
FALLS CITY     SUNNY     71  51  49 S17G24    30.24F
6HR MIN TEMP:  50; 6HR MAX TEMP:  71;

NEBRASKA CITY  MOSUNNY   70  52  52 SE15G22   30.23F
PLATTSMOUTH    MOSUNNY   70  53  55 SE14G23   30.22F
$$

NEZ044-045-051>053-067-191900-
OMAHA AREA

CITY           SKY/WX    TMP DP  RH WIND       PRES   REMARKS
OMAHA EPPLEY   PTSUNNY   71  51  49 SE21G29   30.20F
6HR MIN TEMP:  57; 6HR MAX TEMP:  71;

BLAIR          SUNNY     70  53  53 SE15G22   30.19F
FREMONT        MOSUNNY   71  53  52 S16G25    30.18F
MILLARD        MOSUNNY   72  52  49 SE15G22   30.20F
OFFUTT AFB     MOSUNNY   70  51  51 S17       30.20F
PLATTSMOUTH    MOSUNNY   70  53  55 SE14G23   30.22F
WAHOO          FAIR      73  53  50 S14G23    30.17F
$$


 

View Past Reports for Omaha, NE.

Products Courtesy of NOAA-NWS
NWS Information Parsing Script by Ken True at Saratoga Weather - Script by SE Lincoln Weather.